Location: �perlecques
(50.8057°N, 2.1521°E)
Time: 19:47:34
(UTC+00:00)

Tiros 1 - Pass Details

Date: 12 August 2021
Orbit: 630 x 663 km, 48.4° (Epoch: 28 September)

Event Time Altitude Azimuth Distance (km) Brightness Sun altitude
Rises 17:40:42 0° 276° (W) 2,995 12.6 13.8°
Reaches altitude 10° 17:43:06 10° 272° (W) 2,078 12.7 13.4°
Maximum altitude 17:47:46 53° 196° (SSW) 806 7.9 12.7°
Drops below altitude 10° 17:52:23 10° 120° (ESE) 2,058 9.2 12.0°
Sets 17:54:45 0° 115° (ESE) 2,962 9.9 11.6°
